Weather in Bokhtariyon

Tajikistan     37°52′52″N   68°43′50″E
temp.,
°C
wind,
m/s
gust,
m/s
humid.,
%
clouds,
%
prec.,
mm/h
press.,
hPa
HPBL,
m
12 april, mon
mon1223:00+16nne34424 0.0 101645
02:00+15n33450 0.0 101738
05:00+14nne33452 0.0 101834
08:00+18nne23440 0.0 1018158
11:00+23ese11321 0.0 1018741
14:00+26sse23242 0.0 10162737
17:00+26se222310 0.0 10151859
20:00+21wsw1128100 0.0 101611
13 april, tue
tue1323:00+18n5844100 0.1 1017229
02:00+16nnw3357100 0.1 101978
05:00+16nne2361100 0.1 1020109
08:00+16ene236593 0.1 1022419
11:00+20e21505 0.1 10211234
14:00+23e11399 0.0 10191894
17:00+24nne113688 0.0 10171743
20:00+18n335712 0.0 101846
14 april, wed
wed1423:00+16n35570 0.0 101873
02:00+15n345579 0.0 101759
05:00+14n3351100 0.0 101640
08:00+18nne3348100 0.0 1016192
11:00+23e11365 0.0 1015792
14:00+26se11285 0.0 10131738
17:00+27e11270 0.0 10111376
20:00+21nnw11390 0.0 101211
15 april, thu
thu1523:00+18n3445100 0.0 101241
02:00+17n3345100 0.0 101244
05:00+16n3442100 0.0 101146
08:00+19nne2343100 0.0 1011142
11:00+24se1129100 0.0 1010568
14:00+26s2226100 0.0 1008846
17:00+24sse2338100 0.0 100756
20:00+21n0138100 0.0 100811
16 april, fri
fri1623:00+20ne1139100 0.0 100913
02:00+18nnw1139100 0.0 101116
05:00+16sse3561100 0.0 1014230
08:00+16sw1271100 0.0 1017338
11:00+19s2252100 0.0 10171099
14:00+23sse333543 0.0 10152183
17:00+23sse323798 0.0 10141674
20:00+18ssw345993 0.0 101586